| time (UTC) | temp F | wind direction | speed knots | gust knots | rain 1hr in | rain 24hr in | rain mn in | humidity % | barometer mb |
| 20260904091602 | 79 | 0 | 0.0 | 0.0 | 0.01 | 0.06 | 0.06 | 93 | 1012.0 |
| 20260904090104 | 79 | 0 | 0.0 | 0.0 | 0.01 | 0.06 | 0.06 | 93 | 1011.9 |
| 20260904084605 | 79 | 0 | 0.0 | 0.0 | 0.00 | 0.05 | 0.05 | 93 | 1011.9 |
| 20260904083105 | 79 | 0 | 0.0 | 0.0 | 0.00 | 0.05 | 0.05 | 93 | 1011.9 |
| 20260904081609 | 79 | 0 | 0.0 | 0.9 | 0.00 | 0.05 | 0.05 | 93 | 1011.8 |
| 20260904080113 | 79 | 0 | 0.0 | 0.9 | 0.00 | 0.05 | 0.05 | 92 | 1012.0 |
| 20260904074606 | 79 | 0 | 0.0 | 0.9 | 0.00 | 0.05 | 0.05 | 92 | 1012.0 |
| 20260904073107 | 79 | 0 | 0.0 | 0.0 | 0.01 | 0.05 | 0.05 | 92 | 1011.9 |
| 20260904071606 | 79 | 0 | 0.0 | 0.0 | 0.02 | 0.05 | 0.05 | 92 | 1012.2 |
| 20260904070110 | 79 | 0 | 0.0 | 0.0 | 0.03 | 0.05 | 0.05 | 92 | 1012.3 |
| 20260904064604 | 79 | 0 | 0.0 | 0.0 | 0.03 | 0.05 | 0.05 | 91 | 1012.3 |
| 20260904063105 | 79 | 0 | 0.0 | 0.9 | 0.03 | 0.04 | 0.04 | 91 | 1012.1 |
| 20260904061604 | 79 | 0 | 0.0 | 0.9 | 0.02 | 0.03 | 0.03 | 91 | 1012.1 |
| 20260904060104 | 79 | 0 | 0.0 | 0.0 | 0.02 | 0.02 | 0.02 | 90 | 1012.5 |
| 20260904054605 | 79 | 0 | 0.0 | 0.9 | 0.02 | 0.02 | 0.02 | 90 | 1012.4 |
| 20260904053106 | 79 | 0 | 0.0 | 0.0 | 0.01 | 0.01 | 0.01 | 89 | 1012.2 |
| 20260904051623 | 79 | 0 | 0.0 | 0.9 | 0.01 | 0.01 | 0.01 | 89 | 1012.0 |
| 20260904050110 | 79 | 0 | 0.0 | 0.0 | 0.00 | 0.00 | 0.00 | 88 | 1011.8 |
| 20260904044605 | 79 | 0 | 0.0 | 0.9 | 0.00 | 0.00 | 0.00 | 88 | 1012.0 |
| 20260904043110 | 79 | 0 | 0.0 | 0.9 | 0.00 | 0.00 | 0.00 | 88 | 1012.1 |
| 20260904041604 | 80 | 0 | 0.0 | 1.7 | 0.00 | 0.00 | 0.00 | 87 | 1012.3 |
| 20260904040107 | 80 | 0 | 0.0 | 0.0 | 0.00 | 0.00 | 0.00 | 87 | 1012.1 |
| 20260904034604 | 80 | 0 | 0.0 | 1.7 | 0.00 | 0.02 | 0.00 | 86 | 1012.1 |
| 20260904033104 | 80 | 0 | 0.0 | 0.9 | 0.00 | 0.02 | 0.00 | 86 | 1012.1 |
| 20260904031601 | 80 | 0 | 0.0 | 0.9 | 0.00 | 0.02 | 0.00 | 86 | 1012.1 |
| 20260904030110 | 80 | 0 | 0.0 | 0.9 | 0.00 | 0.02 | 0.00 | 85 | 1012.0 |
| 20260904024609 | 80 | 0 | 0.0 | 0.0 | 0.00 | 0.20 | 0.00 | 85 | 1012.0 |
| 20260904023102 | 80 | 0 | 0.0 | 1.7 | 0.00 | 0.20 | 0.00 | 85 | 1011.6 |
| 20260904021604 | 80 | 0 | 0.0 | 0.9 | 0.00 | 0.20 | 0.00 | 84 | 1011.6 |
| 20260904020100 | 80 | 0 | 0.0 | 2.6 | 0.00 | 0.20 | 0.00 | 84 | 1011.1 |
| 20260904014615 | 80 | 0 | 0.0 | 1.7 | 0.00 | 0.20 | 0.00 | 84 | 1011.0 |
| 20260904013106 | 80 | 113 | 0.0 | 1.7 | 0.00 | 0.20 | 0.00 | 83 | 1010.9 |
| 20260904011603 | 80 | 0 | 0.0 | 2.6 | 0.00 | 0.20 | 0.00 | 83 | 1010.8 |
| 20260904010100 | 80 | 0 | 0.0 | 0.9 | 0.00 | 0.20 | 0.00 | 83 | 1010.7 |
| 20260904004604 | 80 | 0 | 0.0 | 0.9 | 0.00 | 0.20 | 0.00 | 83 | 1010.7 |
| 20260904003105 | 80 | 0 | 0.0 | 0.9 | 0.00 | 0.20 | 0.00 | 83 | 1010.4 |
| 20260904001602 | 81 | 0 | 0.0 | 0.9 | 0.00 | 0.20 | 0.00 | 83 | 1010.5 |
| 20260904000059 | 81 | 0 | 0.0 | 1.7 | 0.00 | 0.20 | 0.00 | 83 | 1010.8 |
| 20260903234616 | 81 | 0 | 0.0 | 0.0 | 0.00 | 0.20 | 0.00 | 82 | 1010.6 |
| 20260903233106 | 81 | 0 | 0.0 | 1.7 | 0.00 | 0.20 | 0.00 | 82 | 1010.7 |
| 20260903231607 | 81 | 0 | 0.0 | 1.7 | 0.00 | 0.20 | 0.00 | 82 | 1010.8 |
| 20260903230106 | 81 | 0 | 0.0 | 1.7 | 0.00 | 0.20 | 0.00 | 81 | 1010.9 |
| 20260903224602 | 82 | 0 | 0.0 | 1.7 | 0.00 | 0.20 | 0.00 | 81 | 1011.0 |
| 20260903223103 | 82 | 0 | 0.0 | 2.6 | 0.00 | 0.20 | 0.00 | 81 | 1011.0 |
| 20260903221601 | 83 | 145 | 0.9 | 5.2 | 0.00 | 0.20 | 0.00 | 80 | 1011.2 |
| 20260903220122 | 83 | 94 | 0.9 | 3.5 | 0.00 | 0.20 | 0.00 | 80 | 1011.0 |
| 20260903214605 | 83 | 76 | 0.9 | 3.5 | 0.00 | 0.20 | 0.00 | 81 | 1011.6 |
| 20260903213112 | 83 | 91 | 0.9 | 2.6 | 0.00 | 0.20 | 0.00 | 84 | 1011.7 |
| 20260903211605 | 84 | 76 | 0.0 | 2.6 | 0.00 | 0.20 | 0.00 | 84 | 1011.9 |
| 20260903210113 | 83 | 360 | 0.9 | 2.6 | 0.00 | 0.20 | 0.00 | 84 | 1012.0 |
| 20260903204603 | 83 | 360 | 0.9 | 3.5 | 0.00 | 0.20 | 0.00 | 83 | 1011.9 |
| 20260903203104 | 83 | 72 | 0.9 | 3.5 | 0.00 | 0.20 | 0.00 | 84 | 1011.8 |
| 20260903201601 | 83 | 91 | 0.9 | 3.5 | 0.00 | 0.20 | 0.00 | 84 | 1012.1 |
| 20260903200104 | 82 | 88 | 1.7 | 4.3 | 0.00 | 0.20 | 0.00 | 83 | 1012.4 |
| 20260903194602 | 82 | 76 | 1.7 | 4.3 | 0.00 | 0.20 | 0.00 | 82 | 1012.7 |
| 20260903193100 | 82 | 78 | 1.7 | 7.0 | 0.00 | 0.20 | 0.00 | 82 | 1012.8 |
| 20260903191604 | 82 | 64 | 1.7 | 4.3 | 0.00 | 0.20 | 0.00 | 83 | 1012.9 |
| 20260903184601 | 81 | 66 | 1.7 | 4.3 | 0.00 | 0.20 | 0.00 | 85 | 1013.3 |
| 20260903183105 | 80 | 360 | 0.9 | 3.5 | 0.00 | 0.20 | 0.00 | 85 | 1013.2 |
| 20260903181604 | 80 | 65 | 1.7 | 3.5 | 0.00 | 0.20 | 0.00 | 85 | 1013.2 |
| 20260903174601 | 80 | 78 | 0.0 | 3.5 | 0.00 | 0.20 | 0.00 | 85 | 1013.7 |
| 20260903173100 | 81 | 0 | 0.0 | 1.7 | 0.00 | 0.20 | 0.00 | 87 | 1014.0 |
| 20260903171626 | 80 | 0 | 0.0 | 1.7 | 0.00 | 0.20 | 0.00 | 86 | 1014.3 |
| 20260903170100 | 80 | 0 | 0.0 | 0.9 | 0.00 | 0.20 | 0.00 | 87 | 1014.4 |
| 20260903164605 | 80 | 0 | 0.0 | 3.5 | 0.00 | 0.20 | 0.00 | 88 | 1013.9 |
| 20260903163059 | 80 | 0 | 0.0 | 1.7 | 0.00 | 0.20 | 0.00 | 90 | 1013.8 |
| 20260903161600 | 80 | 0 | 0.0 | 1.7 | 0.00 | 0.20 | 0.00 | 91 | 1014.0 |
| 20260903160059 | 80 | 0 | 0.0 | 1.7 | 0.00 | 0.20 | 0.00 | 92 | 1014.0 |
| 20260903154601 | 79 | 71 | 0.9 | 2.6 | 0.00 | 0.20 | 0.00 | 93 | 1013.9 |
| 20260903153058 | 79 | 71 | 0.9 | 3.5 | 0.00 | 0.20 | 0.00 | 94 | 1013.9 |
| 20260903151604 | 80 | 85 | 0.9 | 3.5 | 0.00 | 0.20 | 0.00 | 95 | 1014.0 |
| 20260903144601 | 80 | 76 | 0.9 | 2.6 | 0.00 | 0.20 | 0.00 | 95 | 1013.8 |
| 20260903143112 | 79 | 0 | 0.0 | 0.9 | 0.00 | 0.20 | 0.00 | 95 | 1013.8 |
| 20260903141604 | 79 | 0 | 0.0 | 3.5 | 0.00 | 0.20 | 0.00 | 95 | 1013.7 |
| 20260903140106 | 79 | 67 | 0.9 | 2.6 | 0.00 | 0.20 | 0.00 | 95 | 1013.4 |
| 20260903134604 | 79 | 0 | 0.0 | 0.0 | 0.00 | 0.20 | 0.00 | 95 | 1013.3 |
| 20260903133111 | 79 | 0 | 0.0 | 0.0 | 0.00 | 0.20 | 0.00 | 95 | 1013.4 |
| 20260903131611 | 79 | 0 | 0.0 | 1.7 | 0.00 | 0.20 | 0.00 | 95 | 1013.3 |
| 20260903130121 | 79 | 0 | 0.0 | 0.9 | 0.00 | 0.20 | 0.00 | 95 | 1013.1 |
| 20260903124603 | 79 | 0 | 0.0 | 0.9 | 0.00 | 0.20 | 0.00 | 95 | 1013.1 |
| 20260903123102 | 79 | 0 | 0.0 | 0.9 | 0.00 | 0.20 | 0.00 | 95 | 1012.7 |
| 20260903121604 | 79 | 0 | 0.0 | 0.9 | 0.00 | 0.20 | 0.00 | 95 | 1012.3 |
| 20260903120059 | 78 | 0 | 0.0 | 0.9 | 0.00 | 0.20 | 0.00 | 95 | 1012.4 |
| 20260903114601 | 78 | 0 | 0.0 | 0.9 | 0.00 | 0.20 | 0.00 | 95 | 1012.2 |
| 20260903113104 | 78 | 0 | 0.0 | 0.9 | 0.00 | 0.20 | 0.00 | 95 | 1012.2 |
| 20260903111608 | 78 | 0 | 0.0 | 0.9 | 0.00 | 0.20 | 0.00 | 95 | 1012.3 |
| 20260903110103 | 79 | 0 | 0.0 | 0.9 | 0.00 | 0.20 | 0.00 | 95 | 1012.2 |
| 20260903104604 | 79 | 0 | 0.0 | 0.0 | 0.00 | 0.20 | 0.00 | 95 | 1011.9 |
| 20260903103104 | 79 | 0 | 0.0 | 0.9 | 0.00 | 0.20 | 0.00 | 95 | 1012.0 |
| 20260903101604 | 79 | 0 | 0.0 | 0.9 | 0.00 | 0.20 | 0.00 | 95 | 1012.2 |
| 20260903094610 | 79 | 0 | 0.0 | 0.0 | 0.00 | 0.20 | 0.00 | 95 | 1012.1 |
| 20260903093119 | 79 | 0 | 0.0 | 1.7 | 0.00 | 0.20 | 0.00 | 94 | 1012.2 |